Regional Weather Roundup
Issued by NWS

Home | Current Version | Previous Version | Text Only | Print | Product List | Glossary On
Versions: 1 2 3 4 5 6 7 8 9 10 11 12 13 14 15 16 17 18 19 20 21 22 23 24 25 26 27 28 29 30 31 32 33 34 35 36 37 38 39 40 41 42 43 44 45 46 47 48 49 50
000
ASUS46 KSTO 280815
RWRCA

NORTHERN AND CENTRAL CA REGIONAL WEATHER ROUNDUP
NATIONAL WEATHER SERVICE SACRAMENTO CA
100 AM PDT FRI JUL 28 2017

NOTE: FAIR INDICATES FEW OR NO CLOUDS BELOW 12,000 FEET WITH NO
SIGNIFICANT WEATHER AND/OR OBSTRUCTIONS TO VISIBILITY.

CAZ001-003-280900-
NORTHWEST AREA

CITY           SKY/WX    TMP DP  RH WIND       PRES   REMARKS
CRESCENT CITY  CLOUDY    54  53  97 S13       30.05R
UKIAH          CLEAR     65  56  72 CALM      29.91S
$$

CAZ006-505>513-280900-
BAY AREA

CITY           SKY/WX    TMP DP  RH WIND       PRES   REMARKS
SANTA ROSA     CLEAR     57  53  86 S3        29.88S
SAN RAFAEL     N/A       63  MM  MM MISG
NAPA           CLEAR     61  57  87 S10       29.89F
CONCORD        CLEAR     66  57  72 NW5       29.87S
OAKLAND CITY   N/A      MM  MM  MM MISG
OAKLAND        CLEAR     58  56  93 NW7       29.91F
SAN FRAN CITY  N/A       57  MM  83 MISG
SAN FRAN ARPT  PTCLDY    59  53  80 NW12      29.91S
LIVERMORE      CLEAR     69  52  54 W3        29.88F
HAYWARD        CLEAR     61  53  75 NW6       29.91S
REDWOOD CITY   N/A       63  MM  80 MISG
MOFFETT ARPT   CLEAR     64  59  83 NW3       29.91F
SAN JOSE ARPT  CLEAR     65  60  84 NW3       29.91S
$$
CAZ034-037-514>518-280900-
CENTRAL COAST

CITY           SKY/WX    TMP DP  RH WIND       PRES   REMARKS
WATSONVILLE    CLOUDY    55  55 100 CALM      29.92F
SALINAS        CLOUDY    55  55 100 NE3       29.92F FOG
MONTEREY       MOCLDY    55  54  96 SE5       29.93S FOG
SAN LUIS OBISP CLEAR     57  54  89 NW5       29.93F
SANTA MARIA    CLOUDY    57  57 100 SW9       29.93F FOG
$$
CAZ015-016-280900-
NORTHERN SACRAMENTO VALLEY

CITY           SKY/WX    TMP DP  RH WIND       PRES   REMARKS
REDDING        CLEAR     82  50  32 CALM      29.84S
RED BLUFF      CLEAR     80  60  50 NE3       29.84S
OROVILLE       CLEAR     84  56  38 E8        29.83F
$$
CAZ016>018-280900-
SOUTHERN SACRAMENTO VALLEY

CITY           SKY/WX    TMP DP  RH WIND       PRES   REMARKS
AUBURN         CLEAR     79  46  31 E7        29.92F
BEALE AFB      CLEAR     74  49  40 CALM      29.81S
LINCOLN        FAIR      75  46  35 CALM      29.83S
MARYSVILLE     CLEAR     74  55  51 E3        29.83S
SAC INTL ARPT  CLEAR     75  56  51 SE8       29.82S
MATHER AIRPORT NOT AVBL
DOWNTOWN SAC   N/A       75  MM  MM MISG
SAC EXEC ARPT  CLEAR     72  56  57 S3        29.83S
VACAVILLE      CLEAR     76  53  44 S5        29.83S
$$
CAZ019>021-280900-
SAN JOAQUIN VALLEY

CITY           SKY/WX    TMP DP  RH WIND       PRES   REMARKS
STOCKTON       CLEAR     73  52  47 NW6       29.83S
MODESTO          N/A     80  53  39 N5        29.83F
MERCED         CLEAR     71  57  61 W6        29.84S
LEMOORE        CLEAR     79  50  36 CALM      29.84S
FRESNO         PTCLDY    81  58  45 NW9       29.84F
HANFORD        CLEAR     78  58  49 NW5       29.84S
PORTERVILLE      N/A     74  60  61 SE7       29.86S
BAKERSFIELD    CLEAR     85  56  37 W3        29.86S
$$
CAZ011-012-071-280900-
NORTHERN MOUNTAINS

CITY           SKY/WX    TMP DP  RH WIND       PRES   REMARKS
YREKA          CLEAR     68  51  54 N7        30.03S
MOUNT SHASTA   CLEAR     63  51  65 NE5       30.07S
ALTURAS        CLEAR     59  50  72 CALM      30.12S
$$
CAZ011-012-071-280900-
SIERRA NEVADA MTNS

CITY           SKY/WX    TMP DP  RH WIND       PRES   REMARKS
BLUE CANYON    CLEAR     69  44  40 NE5       30.19F
TRUCKEE        CLEAR     54  43  66 CALM      30.25S
TAHOE VLY ARPT CLEAR     55  46  71 S3        30.25F
MAMMOTH LAKES  FAIR      56  40  53 N3        30.31F
$$



USA.gov is the U.S. government's official web portal to all federal, state and local government web resources and services.